www.pogodaiklimat.ru

Погода и климат >> Архив погоды >> Норвегия >> Fagernes


ПОГОДА в Fagernes

  • Прогноз погоды в Fagernes
  • Монитор погоды в Fagernes
  • Климат города

АРХИВ ПОГОДЫ в Fagernes

Время (UTC), дата Ветер
(напр.,м/с)
 
Видим.   Явления Облачность Т
(С)
Тd
(С)
f
(%)
Тe
(С)
Тes
(С)
Комфортность P
(гПа)
Po
(гПа)
Тmin
(С)
Tmax
(С)
R
(мм)
R24
(мм)
S
(см)
13 23.04 З 5-7
{8}
н/о н/о +4.8 -8.3 38 +1 +1 1010.7 966.7
14 23.04 З 3-5
{7}
н/о н/о +4.6 -10.6 32 +2 +2 1010.8 966.7
15 23.04 З 4-6
{7}
65 км 4/4 1000 м
[Sc diur, vesp]
+5.0 -10.3 32 +2 +4 1010.2 966.2
16 23.04 ЮЗ 3-5
{7}
н/о н/о +4.5 -10.3 33 +2 +2 1010.0 965.9
17 23.04 З 3-4
{5}
н/о н/о +4.0 -10.0 35 +1 +1 1009.9 965.7
18 23.04 ЮЗ 2-3
{8}
н/о н/о +3.1 -7.3 46 +1 +1 1009.6 965.3 +1.2 +5.4
19 23.04 штиль 0-1
{3}
н/о н/о +2.6 -5.7 54 +2 +2 1009.1 964.8
20 23.04 З 1-1
{1}
н/о н/о +1.9 -8.7 45 +1 +1 1008.8 964.4
21 23.04 штиль 0
{1}
н/о н/о +1.0 -8.2 50 +1 +1 1008.3 963.7
22 23.04 штиль 0-1
{1}
н/о н/о +1.4 -8.1 49 +1 +1 1007.3 962.9
23 23.04 В 2-2
{3}
н/о н/о +1.5 -5.4 60 -1 -1 1006.5 962.1
00 24.04 штиль 0-1
{3}
30 км слабый снег 10/0
[As op]
+0.9 -4.9 65 0 0 1005.5 961.1
01 24.04 В 2-4
{4}
н/о н/о -0.7 -2.6 87 -4 -4 1004.7 960.0
02 24.04 штиль 0-1
{3}
н/о н/о -1.1 -2.5 90 -2 -2 1003.6 959.0
03 24.04 штиль 0-1
{2}
3000 м слабый снег 10/0
[As op]
-1.2 -2.3 92 -2 -2 1002.2 957.6
04 24.04 штиль 0-1
{2}
н/о н/о -1.2 -2.5 91 -2 -2 1001.0 956.4
05 24.04 штиль 0
{1}
н/о н/о -1.4 -2.4 93 -3 -3 1000.1 955.5
06 24.04 штиль 0
{4}
3000 м слабый снег 10/4 600 м
[Frnb As op]
-0.7 -2.1 90 -2 -2 999.4 955.0 -1.4 +3.3
07 24.04 ЮЗ 1-2
{2}
н/о н/о -0.8 -2.3 90 -3 -3 998.9 954.5
08 24.04 штиль 0
{2}
н/о н/о -0.6 -2.7 86 -2 -2 998.6 954.2
09 24.04 штиль 0
{1}
1000 м сильный снег 10/10 200 м
[Frnb]
-0.7 -2.9 85 -2 -2 998.3 953.9
10 24.04 штиль 0-1
{2}
н/о н/о -0.8 -2.7 87 -2 -2 998.2 953.8
11 24.04 штиль 0-1
{1}
н/о н/о -0.7 -2.6 87 -2 -2 998.0 953.6
12 24.04 З 2-3
{3}
1000 м сильный снег 10/10 200 м
[Frnb]
-0.9 -2.2 91 -5 -5 997.8 953.4
13 24.04 З 1-2
{3}
н/о н/о -0.6 -2.1 90 -3 -3 997.8 953.4
14 24.04 З 2-2
{2}
н/о н/о -0.6 -2.1 90 -4 -4 997.8 953.4
15 24.04 З 2-3
{3}
1000 м сильный снег 10/10 100 м
[Frnb]
-0.6 -2.4 88 -4 -4 997.6 953.2
16 24.04 ЮЗ 1-3
{3}
н/о н/о -0.4 -2.8 84 -2 -2 997.7 953.4
17 24.04 штиль 0-1
{4}
н/о н/о +0.1 -4.0 74 -1 -1 997.9 953.7
18 24.04 штиль 0-2
{4}
1000 м сильный снег 10/10 200 м
[Frnb]
+0.4 -4.4 70 -0 -0 998.0 953.8 -1.1 +0.5
19 24.04 штиль 0-1
{2}
н/о н/о +0.2 -5.0 68 -1 -1 998.3 954.1
20 24.04 штиль 0-2
{3}
н/о н/о +0.1 -4.9 69 -1 -1 998.7 954.5
21 24.04 З 1-2
{2}
н/о н/о -0.1 -4.9 70 -2 -2 999.2 954.8
22 24.04 ЮЗ 1-2
{2}
н/о н/о -0.3 -5.6 67 -2 -2 999.4 955.0
23 24.04 З 1-3
{3}
н/о н/о -0.2 -5.5 67 -2 -2 999.7 955.3
00 25.04 ЮЗ 1-2
{3}
1000 м слабый снег {туман} 10/10 100 м
[Frnb]
-0.5 -5.3 70 -2 -2 999.6 955.2
01 25.04 ЮЗ 1-3
{3}
н/о н/о -0.4 -5.3 69 -2 -2 999.5 955.1
02 25.04 ЮЗ 1-2
{3}
н/о н/о 0.0 -5.7 65 -2 -2 999.7 955.3
03 25.04 ЮЗ 1-4
{4}
1500 м слабый снег 10/10 100 м
[Frnb]
+0.2 -6.0 63 -1 -1 1000.0 955.7
04 25.04 ЮЗ 1-2
{2}
н/о н/о 0.0 -4.9 70 -2 -2 1000.5 956.1
05 25.04 ЮЗ 1-2
{3}
н/о н/о +0.3 -5.9 63 -1 -1 1001.1 956.7
06 25.04 Ю 1-2
{4}
н/о н/о +1.0 -6.7 56 -0 -0 1001.4 957.2 -0.7 +1.1
07 25.04 С 1-4
{4}
н/о н/о +2.7 -7.2 48 +2 +2 1001.3 957.3
08 25.04 Ю 1-3
{5}
н/о н/о +2.7 -7.2 48 +2 +2 1001.8 957.8
09 25.04 Ю 1-3
{3}
30 км 8/8 1500 м
[Sc]
+2.8 -8.2 44 +2 +4 1002.0 958.0
10 25.04 ЮЗ 1-2
{4}
н/о н/о +3.5 -9.4 38 +3 +3 1002.1 958.2
11 25.04 СВ 1-4
{4}
н/о н/о +4.4 -10.0 34 +4 +4 1002.2 958.5
12 25.04 СВ 3-5
{6}
30 км 8/6 1500 м
[Sc Ci fib]
+4.4 -9.7 35 +2 +5 1002.5 958.7
13 25.04 В 2-6
{6}
н/о н/о +4.8 -8.9 36 +3 +3 1002.8 959.0
14 25.04 В 1-4
{6}
н/о н/о +4.5 -9.6 35 +4 +4 1003.2 959.4
15 25.04 СВ 1-2
{4}
>70 км 3/0
[]
+4.6 -9.5 35 +4 +10 1003.9 960.1
16 25.04 СВ 1 н/о н/о +3.8 -8.8 39 +3 +3 1004.6 960.6
17 25.04 ЮЗ 1-3
{4}
н/о н/о +4.1 -7.6 42 +4 +4 1005.0 961.1
18 25.04 штиль 0-1
{6}
65 км 6/0
[Ac cuf]
+3.8 -8.2 41 +4 +4 1005.3 961.3 +1.0 +5.3
19 25.04 штиль 0-1
{3}
н/о н/о +2.7 -9.2 41 +3 +3 1006.0 961.8
20 25.04 СЗ 1-2
{2}
н/о н/о +1.4 -8.9 46 0 0 1006.7 962.2
21 25.04 штиль 0-1
{1}
н/о н/о +0.6 -9.1 48 0 0 1007.2 962.6
22 25.04 штиль 0
{1}
н/о н/о -1.2 -7.6 62 -2 -2 1007.6 962.8
23 25.04 штиль 0
{2}
н/о н/о -1.9 -8.1 63 -3 -3 1008.1 963.0
00 26.04 штиль 0
{3}
65 км 5/0
[Ac cuf]
-1.9 -8.7 60 -3 -3 1008.3 963.3
01 26.04 штиль 0-1
{1}
н/о н/о -2.8 -8.0 67 -4 -4 1008.7 963.6
02 26.04 штиль 0
{1}
н/о н/о -3.9 -8.4 71 -5 -5 1009.1 963.8
03 26.04 штиль 0
{1}
65 км ясно -4.4 -8.5 73 -5 -5 1009.6 964.1
04 26.04 штиль 0 н/о н/о -5.0 -8.5 76 -6 -6 1009.8 964.2
05 26.04 штиль 0
{1}
н/о н/о -4.6 -7.9 78 -5 -5 1010.0 964.4
06 26.04 штиль 0
{1}
>70 км ясно -3.0 -8.4 66 -4 -1 1009.8 964.5 -5.9 +3.8
07 26.04 штиль 0 н/о н/о -1.1 -7.7 61 -2 -2 1009.4 964.4
08 26.04 штиль 0
{1}
н/о н/о +0.9 -8.3 50 +1 +1 1008.9 964.3
09 26.04 Ю 1-2
{2}
>70 км 4/3 1500 м
[Cu hum Ci fib]
+4.9 -8.9 36 +5 +11 1008.0 964.0
10 26.04 ЮЗ 2-3
{4}
н/о н/о +5.2 -8.9 35 +4 +4 1008.0 964.1
11 26.04 ЮЗ 2-3
{7}
н/о н/о +5.7 -6.8 40 +4 +4 1007.9 964.1
12 26.04 З 3-5
{7}
65 км 9/8 1500 м
[Cu med, cong Ci fib]
+5.3 -10.0 32 +3 +4 1007.8 963.9
13 26.04 З 1-3
{5}
н/о н/о +6.4 -10.3 29 +6 +6 1007.6 963.9
14 26.04 З 4-6
{7}
н/о н/о +6.5 -8.9 32 +4 +4 1007.3 963.6
15 26.04 З 5-7
{8}
30 км 8/6 1500 м
[Cu Sc Ci fib]
+6.1 -8.9 33 +3 +4 1007.2 963.5
16 26.04 З 3 н/о н/о +5.2 -7.6 39 +3 +3 1007.6 963.7
17 26.04 З 4-5
{6}
н/о н/о +4.7 -7.7 40 +1 +1 1007.6 963.7
18 26.04 З 2-3
{8}
65 км 10/0
[]
+4.3 -6.5 45 +2 +3 1007.6 963.6 -3.0 +7.8
19 26.04 ЮЗ 2-3
{3}
н/о н/о +3.3 -5.6 52 +1 +1 1008.0 963.9
20 26.04 ЮЗ 1-2
{4}
н/о н/о +2.4 -5.4 56 +1 +1 1008.3 964.0
21 26.04 штиль 0-1
{2}
н/о н/о +0.9 -4.5 67 0 0 1008.4 963.9
22 26.04 штиль 0
{1}
н/о н/о -0.5 -5.8 67 -1 -1 1008.6 963.8
23 26.04 штиль 0
{1}
н/о н/о -1.3 -6.0 70 -2 -2 1008.7 963.7
00 27.04 штиль 0
{4}
55 км ясно -2.2 -6.1 75 -3 -3 1008.9 963.8
01 27.04 штиль 0
{1}
н/о н/о -3.0 -6.4 77 -4 -4 1008.9 963.7
02 27.04 штиль 0 н/о н/о -2.7 -5.9 79 -4 -4 1008.7 963.5
03 27.04 штиль 0
{1}
55 км ясно -2.6 -6.0 77 -4 -4 1008.5 963.4
04 27.04 штиль 0
{1}
н/о н/о -2.2 -6.2 74 -3 -3 1008.4 963.4
05 27.04 штиль 0 н/о н/о -1.9 -6.4 71 -3 -3 1008.7 963.6
06 27.04 штиль 0
{1}
55 км 10/0
[]
-1.3 -5.7 72 -2 -1 1009.0 964.0 -3.0 +4.3
07 27.04 штиль 0
{1}
н/о н/о -0.9 -6.2 67 -2 -2 1009.2 964.3
08 27.04 штиль 0-1
{1}
н/о н/о +0.1 -6.3 62 -1 -1 1009.5 964.8
09 27.04 ЮЗ 2-2
{2}
65 км 9/0
[As trans]
+2.3 -5.5 56 -0 +4 1008.9 964.6
10 27.04 ЮЗ 1-2
{2}
н/о н/о +3.8 -5.6 50 +3 +3 1008.7 964.5
11 27.04 штиль 0-2
{2}
н/о н/о +5.2 -5.4 46 +5 +5 1008.3 964.4
12 27.04 В 1-2
{2}
>70 км 5/0
[Ac cuf]
+5.6 -9.7 32 +5 +13 1008.3 964.5
13 27.04 В 1-3
{4}
н/о н/о +6.7 -12.4 24 +7 +7 1008.2 964.5
14 27.04 В 1-2
{5}
н/о н/о +6.6 -13.0 23 +7 +7 1008.2 964.5
15 27.04 В 3-4
{4}
65 км 5/0
[Ac cuf]
+6.8 -11.8 25 +5 +8 1008.4 964.7
16 27.04 В 2-3
{4}
н/о н/о +5.6 -10.1 31 +4 +4 1008.8 965.0
17 27.04 В 1-3
{3}
н/о н/о +4.8 -10.4 32 +4 +4 1009.4 965.4
18 27.04 СВ 2-4
{5}
н/о н/о +4.0 -8.6 39 +2 +2 1010.5 966.4 -1.3 +8.1
19 27.04 В 1-2
{4}
н/о н/о +3.3 -8.6 41 +3 +3 1011.6 967.3
20 27.04 штиль 0
{3}
н/о н/о +2.0 -8.3 46 +2 +2 1012.8 968.2
21 27.04 штиль 0-2
{2}
н/о н/о +1.6 -8.2 48 +1 +1 1013.7 969.0
22 27.04 штиль 0-1
{2}
н/о н/о +0.8 -8.4 50 0 0 1014.4 969.5
23 27.04 З 1-1
{1}
н/о н/о +0.7 -9.5 46 -0 -0 1015.2 970.2
00 28.04 штиль 0-1
{4}
30 км 5/0
[Ac cuf]
+0.1 -10.4 45 -0 -0 1015.9 970.8
01 28.04 штиль 0-2
{2}
н/о н/о -0.5 -9.3 51 -1 -1 1016.7 971.5
02 28.04 З 1-2
{2}
н/о н/о -0.7 -9.5 51 -2 -2 1017.1 971.8
03 28.04 штиль 0-1
{1}
55 км 1/0
[Ac trans]
-2.1 -8.7 61 -3 -3 1017.8 972.3
04 28.04 штиль 0-1
{2}
н/о н/о -2.2 -7.8 65 -3 -3 1018.3 972.8
05 28.04 штиль 0-1
{2}
н/о н/о -1.7 -7.5 65 -2 -2 1018.4 973.0
06 28.04 штиль 0
{2}
н/о н/о -0.2 -7.0 60 -1 -1 1018.1 973.0 -2.5 +4.0
07 28.04 ЮЗ 2-3
{3}
н/о н/о +2.3 -8.4 45 -0 -0 1017.9 973.1
08 28.04 В 3-5
{6}
н/о н/о +3.1 -6.5 49 -0 -0 1018.1 973.4
09 28.04 штиль 0-2
{6}
25 км слабый снег 9/8 600 м
[Sc Ac cuf]
+2.0 -4.9 60 +1 +3 1018.9 974.0
10 28.04 В 1-2
{2}
н/о н/о +1.9 -4.4 63 +1 +1 1019.3 974.4
11 28.04 В 1-3
{3}
н/о н/о +2.3 -3.2 67 +1 +1 1019.5 974.6
12 28.04 штиль 0-1
{6}
н/о н/о +2.4 -2.9 68 +2 +2 1019.6 974.8
13 28.04 В 1-3
{3}
н/о н/о +3.1 -3.0 64 +2 +2 1019.8 975.1
14 28.04 В 2-4
{6}
н/о н/о +3.4 -3.2 62 +1 +1 1019.7 975.0
15 28.04 В 1-3
{4}
55 км 10/0
[As op]
+3.4 -3.4 61 +2 +4 1019.7 975.0
16 28.04 штиль 0
{4}
н/о н/о +3.6 -3.9 58 +3 +3 1019.7 975.0
17 28.04 штиль 0-2
{4}
н/о н/о +3.7 -3.8 58 +3 +3 1019.9 975.3
18 28.04 штиль 0
{6}
н/о н/о +2.2 -1.7 75 +1 +1 1020.8 975.9 -0.2 +3.9
19 28.04 штиль 0
{1}
н/о н/о +1.7 -0.9 83 +1 +1 1021.2 976.2
20 28.04 З 1-2
{2}
н/о н/о +1.4 -0.8 85 -0 -0 1021.6 976.5
21 28.04 штиль 0-1
{2}
н/о н/о +1.5 -1.2 82 +1 +1 1022.0 976.9
22 28.04 штиль 0
{1}
н/о н/о +0.8 -0.8 89 -0 -0 1022.5 977.3
23 28.04 штиль 0-2
{2}
н/о н/о +0.7 -0.9 89 -1 -1 1023.0 977.8
00 29.04 штиль 0-1
{2}
2000 м слабый снег 10/6 300 м
[Frnb As op]
+0.4 -0.7 92 -1 -1 1023.3 978.0
01 29.04 С 1-2
{2}
н/о н/о +0.5 -2.0 83 -1 -1 1023.6 978.3
02 29.04 штиль 0
{1}
н/о н/о +0.2 -1.8 86 -1 -1 1024.3 978.9
03 29.04 штиль 0 3000 м слабый снег 10/5 200 м
[Frnb As op]
-0.1 -1.5 90 -1 -1 1024.8 979.3
04 29.04 штиль 0 н/о н/о -0.1 -1.5 90 -1 -1 1025.1 979.7
05 29.04 штиль 0 н/о н/о -0.1 -1.6 90 -1 -1 1025.6 980.1
06 29.04 штиль 0-1
{2}
5000 м слабый снег 10/1 100 м
[Frnb As op]
+0.2 -2.0 85 -1 -0 1025.7 980.3 -0.1 +2.2
07 29.04 штиль 0-1
{1}
н/о н/о +0.7 -2.7 78 -0 -0 1025.8 980.4
08 29.04 штиль 0-2
{2}
н/о н/о +1.6 -2.5 74 +1 +1 1025.8 980.5
09 29.04 В 2-2
{3}
30 км {снег} 8/6 1500 м
[Cu med, cong Ci fib]
+2.1 -3.2 68 -1 +2 1025.6 980.5
10 29.04 В 2-2
{3}
н/о н/о +2.8 -3.3 64 0 0 1025.3 980.3
11 29.04 Ю 1-2
{2}
н/о н/о +5.1 -4.7 49 +5 +5 1024.4 979.8
12 29.04 ЮЗ 1-2
{3}
н/о н/о +6.3 -6.3 40 +6 +6 1024.1 979.7
13 29.04 ЮЗ 1-1
{2}
н/о н/о +6.3 -6.6 39 +6 +6 1024.0 979.6
14 29.04 ЮЗ 2-2
{2}
н/о н/о +6.1 -5.8 42 +4 +4 1023.4 979.0
15 29.04 ЮЗ 2-2
{2}
>70 км осадки на расстоянии 3/0
[Ac lent]
+6.9 -8.2 33 +6 +10 1022.8 978.5
16 29.04 ЮЗ 2-2
{2}
н/о н/о +6.9 -7.8 34 +6 +6 1022.5 978.2
17 29.04 ЮЗ 2-2
{3}
н/о н/о +6.7 -6.6 38 +5 +5 1022.2 978.0
18 29.04 штиль 0-1
{3}
>70 км ясно +4.9 -8.2 38 +5 +6 1022.5 978.0 +0.2 +7.4
19 29.04 штиль 0
{1}
н/о н/о +2.8 -5.5 54 +2 +2 1023.0 978.1
20 29.04 штиль 0
{1}
н/о н/о +1.6 -6.0 57 +1 +1 1023.7 978.6
21 29.04 штиль 0
{1}
н/о н/о +0.9 -6.4 58 0 0 1024.2 978.9
22 29.04 З 1-1
{1}
н/о н/о -0.4 -5.7 67 -2 -2 1024.6 979.1
23 29.04 штиль 0 н/о н/о -1.4 -6.0 71 -2 -2 1024.7 979.1
00 30.04 штиль 0
{1}
>70 км ясно -2.2 -5.9 76 -3 -3 1024.8 979.0
01 30.04 штиль 0
{1}
н/о н/о -2.7 -6.5 75 -4 -4 1024.9 979.0
02 30.04 штиль 0 н/о н/о -3.3 -6.8 77 -4 -4 1025.1 979.1
03 30.04 штиль 0
{1}
>70 км ясно -3.6 -7.3 75 -4 -4 1025.0 979.0
04 30.04 штиль 0 н/о н/о -4.1 -7.6 77 -5 -5 1025.1 979.0
05 30.04 штиль 0
{1}
н/о н/о -3.0 -6.5 77 -4 -4 1024.7 978.8
06 30.04 штиль 0
{1}
>70 км ясно -2.0 -6.9 69 -3 0 1024.3 978.6 -4.2
07 30.04 штиль 0-1
{1}
н/о н/о -0.3 -6.3 64 -1 -1 1023.6 978.2
08 30.04 ЮЗ 1-1
{1}
н/о н/о +1.6 -6.2 56 0 0 1022.8 977.7
09 30.04 ЮЗ 1-1
{1}
>70 км ясно +3.4 -6.5 48 +3 +13 опасность
простуды
1021.8 977.1
10 30.04 штиль 0-1
{1}
н/о н/о +6.0 -7.5 37 +6 +6 1020.8 976.4
11 30.04 штиль 0-1
{1}
н/о н/о +8.5 -7.2 32 +9 +9 1019.9 976.0

 

Местоположение метеостанции Fagernes (Норвегия): широта 60.99 долгота 9.24 высота над уровнем моря 365 м.

В архиве по умолчанию представлена погода в Fagernes за последнюю неделю. Архивные данные за месяц целиком и за предыдущие месяцы, начиная с января 2011 года, Вы можете получить, выбрав интересующий диапазон дат из раскрывающегося списка и нажав кнопку "Ввод!".

Внимание! Время в таблицах - всемирное. Для получения местного времени необходимо прибавить поправку, которая в Fagernes равна 1 ч.

Смотрите также архив погоды в соседних городах и на ближайших метеорологических станциях:

Погода в Fagernes Lufthavn (Норвегия) (4 км)
Погода в Loken i Volbu (Норвегия) (17 км)
Погода в Beitostolen II (Норвегия) (34 км)
Погода в Hemsedal II (Норвегия) (38 км)
Погода в Hemsedal-Hollekolten (Норвегия) (41 км)
Погода в Vest-Torpa II (Норвегия) (43 км)
Погода в Nesbyen-Todokk (Норвегия) (47 км)
Погода в Skabu (Норвегия) (61 км)
Погода в Filefjell-Kyrkjestolane (Норвегия) (64 км)
Погода в Lillehammer (Норвегия) (68 км)

Пояснения к столбцам:

Ветер - указаны скорость ветра в м/с - средняя за 10 мин, порывы в срок и между сроками (в фигурных скобках) и направление, откуда дует ветер: С - северный, СВ - северо-восточный, В - восточный, ЮВ - юго-восточный, Ю - южный, ЮЗ - юго-западный, З - западный, СЗ - северо-западный.
Видимость - горизонтальная дальность видимости в метрах или километрах. При видимости от 1 до 10 км при отсутствии осадков обычно наблюдается дымка, при ухудшении видимости до 1 км и менее - туман. В сухую погоду видимость может ухудшаться дымом, пылью или мглою.
Явления - указаны атмосферные явления, наблюдавшиеся в срок или в последний час перед сроком; фигурными скобками обозначены явления, наблюдавшиеся между сроками (за 1-3 часа до срока); квадратными скобками обозначены град или гололедные отложения с указанием их диаметра в мм.
Облачность - указаны через наклонную черту общая и нижняя облачность в баллах и высота нижней границы облаков в метрах; квадратными скобками обозначены формы облаков: Ci - перистые, Cs - перисто-слоистые, Cc - перисто-кучевые, Ac - высококучевые, As - высокослоистые, Sc - слоисто-кучевые, Ns - слоисто-дождевые, Cu - кучевые, Cb - кучево-дождевые. Подробнее классификацию облаков см. в Атласе облаков (PDF).
T - Температура воздуха - температура, измеренная на высоте 2 м над землей.
Td - Температура точки росы - температура, при понижении до которой содержащийся в воздухе водяной пар достигнет насыщения.
f - Относительная влажность воздуха - влажноcть воздуха, измеренная на высоте 2 м над землей.
Te - Эффективная температура - температура, которую ощущает одетый по сезону человек в тени. Характеристика душности погоды. При расчете учитывается влияние влажности воздуха и скорости ветра на теплоощущения человека.
Tes - Эффективная температура на солнце - температура, которую ощущает человек, с поправкой на солнечный нагрев. Характеристика знойности погоды. Зависит от высоты солнца над горизонтом, облачности и скорости ветра. Ночью, в пасмурную погоду, а также при ветре 12 м/с и более поправка равна нулю.
P - Атмосферное давление - приведенное к уровню моря атмосферное давление.
Po - Атмосферное давление - измеренное на уровне метеостанции атмосферное давление.
Tmin - Минимальная температура - минимум температуры воздуха на высоте 2 м над землей.
Tmax - Максимальная температура - максимум температуры воздуха на высоте 2 м над землей.
R - Количество осадков - Количество выпавших осадков за период времени, мм. При наведении курсора мыши на число - период времени, за который выпало указанное количество осадков.
R24 - Количество осадков - Количество выпавших осадков за 24 часа, мм.
S - Снежный покров - Высота снежного покрова, см. При наведении курсора мыши на число - состояние снежного покрова и степень покрытия местности в баллах.